TimeAKST,TemperatureF,Dew PointF,Humidity,Sea Level PressureIn,VisibilityMPH,Wind Direction,Wind SpeedMPH,Gust SpeedMPH,PrecipitationIn,Events,Conditions,WindDirDegrees,DateUTC
12:04 AM,5.0,-2.2,72,29.57,10.0,SW,5.8,-,N/A,,Mostly Cloudy,220,2013-02-11 09:04:00
12:53 AM,5.0,-2.0,73,29.61,10.0,SSW,5.8,-,N/A,,Overcast,210,2013-02-11 09:53:00
1:53 AM,3.0,-4.0,73,29.64,10.0,SSW,4.6,-,N/A,,Overcast,210,2013-02-11 10:53:00
2:53 AM,-0.0,-6.0,76,29.67,10.0,Variable,4.6,-,N/A,,Overcast,0,2013-02-11 11:53:00
3:45 AM,-2.2,-7.6,78,29.69,10.0,Calm,Calm,-,N/A,,Scattered Clouds,0,2013-02-11 12:45:00
3:53 AM,-2.9,-8.0,79,29.70,10.0,Calm,Calm,-,N/A,,Partly Cloudy,0,2013-02-11 12:53:00
4:53 AM,-7.1,-11.9,79,29.73,10.0,Calm,Calm,-,N/A,,Clear,0,2013-02-11 13:53:00
5:53 AM,-13.0,-18.0,78,29.75,10.0,Calm,Calm,-,N/A,,Clear,0,2013-02-11 14:53:00
6:53 AM,-14.1,-20.0,75,29.76,6.0,Calm,Calm,-,N/A,,Haze,0,2013-02-11 15:53:00
7:53 AM,-20.0,-25.1,78,29.78,7.0,SW,3.5,-,N/A,,Clear,220,2013-02-11 16:53:00
8:53 AM,-23.1,-27.9,78,29.78,10.0,SW,3.5,-,N/A,,Clear,220,2013-02-11 17:53:00
9:53 AM,-20.9,-27.0,73,29.79,10.0,SW,3.5,-,N/A,,Clear,220,2013-02-11 18:53:00
10:53 AM,-18.9,-25.1,74,29.78,10.0,SW,3.5,-,N/A,,Mostly Cloudy,220,2013-02-11 19:53:00
11:53 AM,-14.1,-20.0,75,29.78,5.0,Calm,Calm,-,N/A,,Haze,0,2013-02-11 20:53:00
12:53 PM,-9.0,-14.1,79,29.77,10.0,Calm,Calm,-,N/A,,Overcast,0,2013-02-11 21:53:00
1:53 PM,-8.0,-14.1,75,29.77,10.0,NNE,3.5,-,N/A,,Overcast,30,2013-02-11 22:53:00
2:53 PM,-6.0,-13.0,72,29.76,10.0,Calm,Calm,-,N/A,,Mostly Cloudy,0,2013-02-11 23:53:00
3:53 PM,-4.0,-11.9,69,29.75,10.0,Calm,Calm,-,N/A,,Overcast,0,2013-02-12 00:53:00
4:53 PM,-2.9,-11.0,68,29.76,10.0,Calm,Calm,-,N/A,,Overcast,0,2013-02-12 01:53:00
5:53 PM,-2.9,-11.0,68,29.76,10.0,Calm,Calm,-,N/A,,Overcast,0,2013-02-12 02:53:00
6:53 PM,-2.0,-9.9,69,29.76,10.0,NNE,3.5,-,N/A,,Overcast,30,2013-02-12 03:53:00
7:03 PM,-2.2,-9.4,71,29.73,10.0,ENE,3.5,-,N/A,,Overcast,60,2013-02-12 04:03:00
7:53 PM,-2.0,-9.0,72,29.76,10.0,Calm,Calm,-,N/A,,Overcast,0,2013-02-12 04:53:00
8:53 PM,-2.0,-8.0,76,29.77,10.0,Calm,Calm,-,N/A,,Overcast,0,2013-02-12 05:53:00
9:53 PM,-0.0,-8.0,69,29.76,10.0,NNE,3.5,-,N/A,,Overcast,30,2013-02-12 06:53:00
10:53 PM,-0.0,-7.1,72,29.75,10.0,NNE,5.8,-,N/A,,Overcast,20,2013-02-12 07:53:00
11:01 PM,-0.4,-7.6,72,29.73,10.0,NNE,5.8,-,N/A,,Overcast,30,2013-02-12 08:01:00
11:31 PM,1.4,-7.6,66,29.73,10.0,Calm,Calm,-,N/A,,Overcast,0,2013-02-12 08:31:00
11:53 PM,1.0,-6.0,72,29.75,10.0,NNE,3.5,-,N/A,,Overcast,30,2013-02-12 08:53:00